Find Kosmos-506

NORAD ID: 6119 Int'l Des: 1972-057 Owner: OKB10 Country: SU operational
LEOCIRCULAR

Live Position

Loading 3D Globe...

About Kosmos-506

Description loading...

Upcoming Passes

Passes for default location (London). Set your location on the main map for personalized predictions.

Altitude History

Loading altitude history...

Two-Line Element Set

1 06119U 72057C 26107.31397487 -.00000002 00000-0 84793-4 0 9994
2 06119 74.0239 114.1396 0072442 140.9070 231.2980 12.56206282464372
Epoch: Apr 17, 2026 • Age: 11 hours

Current Status

Altitude 1509.3 km
Velocity 7.08 km/s
Sub-Earth Point -38.11°S, 26.21°W
Type other

Most Searched